Regional Weather Roundup
Issued by NWS

Home | Current Version | Previous Version | Text Only | Print | Product List | Glossary On
Versions: 1 2 3 4 5 6 7 8 9 10 11 12 13 14 15 16 17 18 19 20 21 22 23 24 25 26 27 28 29 30 31 32 33 34 35 36 37 38 39 40 41 42 43 44 45 46 47 48 49 50
000
ASPQ40 PGUM 291712
RWRPQ
WEATHER ROUNDUP FOR THE MARIANAS AND MICRONESIA
NATIONAL WEATHER SERVICE TIYAN GU
300 AM CHST TUE MAY 30 2017

GUZ001>004-291800-
MARIANA ISLANDS-

CITY           SKY/WX    TMP DP  RH WIND       PRES   REMARKS
GUAM AIRPORT   CLEAR     81  79  94 E8        29.88F
ANDERSEN AFB   DRIZZLE   79  75  89 E7        29.89F
ROTA AIRPORT   NOT AVBL
TINIAN AP      NOT AVBL
SAIPAN AP      PTCLDY    82  77  83 E3        29.87F HX  91

$$

PMZ161-291800-
REPUBLIC OF PALAU-

CITY           SKY/WX    TMP DP  RH WIND       PRES   REMARKS
KOROR AP       NOT AVBL
KOROR WSO      CLOUDY    81  79  94 SE7       29.82S

$$

PMZ171>174-291800-
FEDERATED STATES OF MICRONESIA-

CITY           SKY/WX    TMP DP  RH WIND       PRES   REMARKS
YAP AIRPORT    MOCLDY    81  77  89 VRB3      29.82F
CHUUK AP       CLOUDY    82  79  89 NE8       29.78F HX  93
POHNPEI AP     NOT AVBL
POHNPEI WSO    CLOUDY    82  77  83 E6        29.81F HX  91
KOSRAE AP      NOT AVBL

$$

PMZ181-291800-
REPUBLIC OF THE MARSHALL ISLANDS-

CITY           SKY/WX    TMP DP  RH WIND       PRES   REMARKS
KWAJALEIN AP   DRIZZLE   79  77  94 S3        29.82S
MAJURO AP      NOT AVBL
MAJURO WSO     MOCLDY    81  75  83 SE6       29.79S

$$




USA.gov is the U.S. government's official web portal to all federal, state and local government web resources and services.